This is the latest recevied weather packets stored in our database for station/object KW4UJ. If no packets are shown the sender has not sent any weather packets the latest 10 day(s).
| Time | Temp. | Humidity | Pressure | Rain* | Wind** | Luminosity | Snow |
|---|---|---|---|---|---|---|---|
| 1777313549 | 20° C | 44% | 1023.5 hPa | 0 mm | - | 665 W/m² | - |
| 1777313247 | 20° C | 44% | 1023.6 hPa | 0 mm | - | 686 W/m² | - |
| 1777312942 | 20° C | 49% | 1023.5 hPa | 0 mm | - | 683 W/m² | - |
| 1777312639 | 19.44° C | 48% | 1023.7 hPa | 0 mm | - | 680 W/m² | - |
| 1777312336 | 20° C | 46% | 1023.4 hPa | 0 mm | - | 662 W/m² | - |
| 1777312034 | 20° C | 46% | 1023.5 hPa | 0 mm | - | 679 W/m² | - |
| 1777311730 | 20° C | 47% | 1023.4 hPa | 0 mm | - | 670 W/m² | - |
| 1777311428 | 20° C | 46% | 1023.5 hPa | 0 mm | - | 685 W/m² | - |
| 1777311125 | 19.44° C | 47% | 1023.8 hPa | 0 mm | - | 665 W/m² | - |
| 1777310823 | 18.89° C | 48% | 1023.7 hPa | 0 mm | - | 663 W/m² | - |
| 1777310520 | 19.44° C | 46% | 1024 hPa | 0 mm | - | 684 W/m² | - |
| 1777310217 | 19.44° C | 45% | 1023.8 hPa | 0 mm | - | 670 W/m² | - |
| 1777309914 | 18.89° C | 50% | 1024 hPa | 0 mm | - | 693 W/m² | - |
| 1777309612 | 18.89° C | 47% | 1024 hPa | 0 mm | - | 354 W/m² | - |
| 1777309309 | 18.89° C | 49% | 1024.1 hPa | 0 mm | - | 684 W/m² | - |
| 1777309008 | 18.89° C | 47% | 1024.1 hPa | 0 mm | - | 689 W/m² | - |
| 1777308703 | 18.89° C | 50% | 1024.3 hPa | 0 mm | - | 698 W/m² | - |
| 1777308398 | 18.89° C | 49% | 1024.6 hPa | 0 mm | - | 726 W/m² | - |
| 1777308094 | 18.33° C | 50% | 1024.4 hPa | 0 mm | - | 711 W/m² | - |
| 1777307792 | 17.78° C | 50% | 1024.4 hPa | 0 mm | - | 703 W/m² | - |
| 1777307489 | 17.78° C | 49% | 1024.5 hPa | 0 mm | - | 682 W/m² | - |
| 1777307186 | 17.78° C | 51% | 1024.5 hPa | 0 mm | - | 672 W/m² | - |
| 1777306883 | 18.33° C | 53% | 1024.5 hPa | 0 mm | - | 669 W/m² | - |
| 1777306580 | 17.22° C | 53% | 1024.3 hPa | 0 mm | - | 276 W/m² | - |
| 1777306276 | 17.22° C | 52% | 1024.6 hPa | 0 mm | - | 227 W/m² | - |
* Rain latest hour (hover to see other rain measurements)
** Current wind speed in m/s (hover to see current wind gust speed)